TimeMDT,TemperatureF,Dew PointF,Humidity,Sea Level PressureIn,VisibilityMPH,Wind Direction,Wind SpeedMPH,Gust SpeedMPH,PrecipitationIn,Events,Conditions,WindDirDegrees,DateUTC
12:53 AM,75.0,37.9,26,29.82,10.0,NW,10.4,-,N/A,,Clear,320,2013-07-20 06:53:00
1:53 AM,75.9,37.9,25,29.82,10.0,NNW,11.5,-,N/A,,Clear,330,2013-07-20 07:53:00
2:53 AM,71.1,37.9,30,29.83,10.0,WNW,6.9,-,N/A,,Clear,290,2013-07-20 08:53:00
3:53 AM,69.1,39.0,33,29.84,10.0,West,13.8,-,N/A,,Clear,270,2013-07-20 09:53:00
4:53 AM,66.9,37.9,34,29.85,10.0,West,15.0,-,N/A,,Clear,280,2013-07-20 10:53:00
5:53 AM,64.9,37.9,37,29.86,10.0,WNW,5.8,-,N/A,,Clear,300,2013-07-20 11:53:00
6:53 AM,64.0,39.0,40,29.87,10.0,East,4.6,-,N/A,,Clear,100,2013-07-20 12:53:00
7:53 AM,66.0,43.0,43,29.89,10.0,SE,4.6,-,N/A,,Clear,130,2013-07-20 13:53:00
8:53 AM,73.0,39.9,30,29.89,10.0,Calm,Calm,-,N/A,,Clear,0,2013-07-20 14:53:00
9:53 AM,77.0,39.9,26,29.87,10.0,Calm,Calm,-,N/A,,Clear,0,2013-07-20 15:53:00
10:53 AM,80.1,39.9,24,29.86,10.0,South,5.8,-,N/A,,Clear,190,2013-07-20 16:53:00
11:53 AM,82.9,39.0,21,29.83,10.0,Calm,Calm,-,N/A,,Clear,0,2013-07-20 17:53:00
12:53 PM,87.1,39.0,18,29.81,10.0,Variable,3.5,-,N/A,,Clear,0,2013-07-20 18:53:00
1:53 PM,90.0,28.9,11,29.78,9.0,Variable,3.5,-,N/A,,Clear,0,2013-07-20 19:53:00
2:53 PM,91.0,30.0,11,29.76,10.0,Variable,4.6,-,N/A,,Clear,0,2013-07-20 20:53:00
3:53 PM,93.9,28.9,10,29.74,10.0,Variable,4.6,-,N/A,,Clear,0,2013-07-20 21:53:00
4:53 PM,93.9,30.9,11,29.72,10.0,NW,10.4,18.4,N/A,,Clear,320,2013-07-20 22:53:00
5:53 PM,93.0,30.9,11,29.71,10.0,NW,10.4,-,N/A,,Clear,320,2013-07-20 23:53:00
6:53 PM,93.0,30.9,11,29.71,10.0,NNW,8.1,-,N/A,,Clear,340,2013-07-21 00:53:00
7:53 PM,90.0,37.9,16,29.71,10.0,NNW,18.4,-,N/A,,Clear,340,2013-07-21 01:53:00
8:53 PM,86.0,39.9,20,29.71,10.0,NNW,13.8,-,N/A,,Clear,340,2013-07-21 02:53:00
9:53 PM,82.9,42.1,24,29.73,10.0,North,6.9,-,N/A,,Clear,350,2013-07-21 03:53:00
10:53 PM,81.0,39.9,23,29.73,10.0,North,4.6,-,N/A,,Clear,360,2013-07-21 04:53:00
11:53 PM,73.0,42.1,33,29.73,10.0,West,8.1,-,N/A,,Clear,260,2013-07-21 05:53:00